Time,TemperatureF,DewpointF,PressureIn,WindDirection,WindDirectionDegrees,WindSpeedMPH,WindSpeedGustMPH,Humidity,HourlyPrecipIn,Conditions,Clouds,dailyrainin,SoftwareType,DateUTC
2013-03-11 00:05:00,36.0,36.0,29.64,NW,325,1.0,5.0,98,0.00,,,0.00,weatherlink.com 1.10,2013-03-11 05:05:00,
2013-03-11 00:20:00,35.9,35.0,29.65,WNW,290,2.0,2.0,98,0.00,,,0.00,weatherlink.com 1.10,2013-03-11 05:20:00,
2013-03-11 00:35:00,35.4,35.0,29.64,WNW,294,0.0,1.0,98,0.00,,,0.00,weatherlink.com 1.10,2013-03-11 05:35:00,
2013-03-11 00:50:00,35.3,35.0,29.65,West,269,0.0,1.0,98,0.00,,,0.00,weatherlink.com 1.10,2013-03-11 05:50:00,
2013-03-11 01:05:00,34.8,34.0,29.64,SW,235,1.0,4.0,97,0.00,,,0.00,weatherlink.com 1.10,2013-03-11 06:05:00,
2013-03-11 01:20:00,34.6,34.0,29.65,WNW,290,2.0,3.0,97,0.00,,,0.00,weatherlink.com 1.10,2013-03-11 06:20:00,
2013-03-11 01:35:00,34.5,34.0,29.64,WNW,293,1.0,4.0,98,0.00,,,0.00,weatherlink.com 1.10,2013-03-11 06:35:00,
2013-03-11 01:50:00,34.7,34.0,29.64,North,352,2.0,4.0,98,0.00,,,0.00,weatherlink.com 1.10,2013-03-11 06:50:00,
2013-03-11 02:05:00,35.0,35.0,29.64,NNW,346,1.0,4.0,98,0.00,,,0.00,weatherlink.com 1.10,2013-03-11 07:05:00,
2013-03-11 02:20:00,35.0,35.0,29.64,NNW,327,2.0,4.0,98,0.00,,,0.00,weatherlink.com 1.10,2013-03-11 07:20:00,
2013-03-11 02:35:00,35.0,35.0,29.64,NNW,341,3.0,6.0,98,0.00,,,0.00,weatherlink.com 1.10,2013-03-11 07:35:00,
2013-03-11 02:50:00,34.9,34.0,29.63,NW,317,0.0,5.0,98,0.00,,,0.00,weatherlink.com 1.10,2013-03-11 07:50:00,
2013-03-11 03:05:00,34.9,34.0,29.63,North,358,0.0,3.0,98,0.00,,,0.00,weatherlink.com 1.10,2013-03-11 08:05:00,
2013-03-11 03:20:00,34.9,34.0,29.63,WSW,242,1.0,1.0,98,0.00,,,0.00,weatherlink.com 1.10,2013-03-11 08:20:00,
2013-03-11 03:35:00,34.5,34.0,29.62,West,262,0.0,2.0,98,0.00,,,0.00,weatherlink.com 1.10,2013-03-11 08:35:00,
2013-03-11 03:50:00,34.2,34.0,29.62,SW,227,0.0,2.0,98,0.00,,,0.00,weatherlink.com 1.10,2013-03-11 08:50:00,
2013-03-11 04:05:00,34.1,34.0,29.61,SW,218,1.0,3.0,98,0.00,,,0.00,weatherlink.com 1.10,2013-03-11 09:05:00,
2013-03-11 04:20:00,34.0,34.0,29.61,South,190,1.0,2.0,98,0.00,,,0.00,weatherlink.com 1.10,2013-03-11 09:20:00,
2013-03-11 04:35:00,34.0,34.0,29.61,SW,215,1.0,3.0,98,0.01,,,0.01,weatherlink.com 1.10,2013-03-11 09:35:00,
2013-03-11 04:50:00,33.8,33.0,29.60,WNW,300,2.0,3.0,98,0.01,,,0.01,weatherlink.com 1.10,2013-03-11 09:50:00,
2013-03-11 05:05:00,33.6,33.0,29.61,West,269,1.0,3.0,98,0.01,,,0.01,weatherlink.com 1.10,2013-03-11 10:05:00,
2013-03-11 05:20:00,33.5,33.0,29.61,West,276,2.0,2.0,98,0.01,,,0.01,weatherlink.com 1.10,2013-03-11 10:20:00,
2013-03-11 05:35:00,33.5,33.0,29.62,West,274,3.0,4.0,98,0.00,,,0.01,weatherlink.com 1.10,2013-03-11 10:35:00,
2013-03-11 05:50:00,33.5,33.0,29.63,WSW,248,2.0,3.0,98,0.01,,,0.02,weatherlink.com 1.10,2013-03-11 10:50:00,
2013-03-11 06:09:00,33.5,33.0,29.63,West,263,2.0,4.0,98,0.01,,,0.02,weatherlink.com 1.10,2013-03-11 11:09:00,
2013-03-11 06:21:00,33.4,33.0,29.64,West,280,2.0,4.0,98,0.02,,,0.03,weatherlink.com 1.10,2013-03-11 11:21:00,
2013-03-11 06:36:00,33.1,33.0,29.64,West,279,2.0,4.0,98,0.02,,,0.03,weatherlink.com 1.10,2013-03-11 11:36:00,
2013-03-11 06:51:00,33.0,33.0,29.64,WNW,286,0.0,3.0,98,0.01,,,0.03,weatherlink.com 1.10,2013-03-11 11:51:00,
2013-03-11 07:06:00,33.0,33.0,29.65,WNW,288,1.0,4.0,98,0.02,,,0.04,weatherlink.com 1.10,2013-03-11 12:06:00,
2013-03-11 07:21:00,33.1,33.0,29.64,NW,304,1.0,5.0,98,0.01,,,0.04,weatherlink.com 1.10,2013-03-11 12:21:00,
2013-03-11 07:36:00,33.2,33.0,29.64,WNW,300,3.0,4.0,98,0.01,,,0.04,weatherlink.com 1.10,2013-03-11 12:36:00,
2013-03-11 07:51:00,33.2,33.0,29.64,NW,307,3.0,5.0,98,0.02,,,0.05,weatherlink.com 1.10,2013-03-11 12:51:00,
2013-03-11 08:06:00,33.1,33.0,29.64,NW,318,2.0,5.0,98,0.01,,,0.05,weatherlink.com 1.10,2013-03-11 13:06:00,
2013-03-11 08:51:00,33.1,33.0,29.64,NNW,340,6.0,11.0,98,0.01,,,0.06,weatherlink.com 1.10,2013-03-11 13:51:00,
2013-03-11 09:21:00,33.3,33.0,29.64,NW,311,7.0,9.0,98,0.01,,,0.06,weatherlink.com 1.10,2013-03-11 14:21:00,
2013-03-11 09:36:00,33.4,33.0,29.64,NW,304,4.0,8.0,98,0.00,,,0.06,weatherlink.com 1.10,2013-03-11 14:36:00,
2013-03-11 09:51:00,33.4,33.0,29.64,WNW,295,5.0,10.0,98,0.00,,,0.06,weatherlink.com 1.10,2013-03-11 14:51:00,
2013-03-11 10:06:00,33.4,33.0,29.64,WNW,295,6.0,10.0,98,0.00,,,0.06,weatherlink.com 1.10,2013-03-11 15:06:00,
2013-03-11 10:36:00,33.3,33.0,29.65,WNW,303,7.0,12.0,98,0.00,,,0.06,weatherlink.com 1.10,2013-03-11 15:36:00,
2013-03-11 10:51:00,33.3,33.0,29.66,NW,305,5.0,10.0,98,0.00,,,0.06,weatherlink.com 1.10,2013-03-11 15:51:00,
2013-03-11 11:06:00,33.3,33.0,29.66,WNW,288,4.0,11.0,98,0.00,,,0.06,weatherlink.com 1.10,2013-03-11 16:06:00,
2013-03-11 11:21:00,33.3,33.0,29.66,WNW,294,7.0,12.0,98,0.00,,,0.06,weatherlink.com 1.10,2013-03-11 16:21:00,
2013-03-11 11:36:00,33.2,33.0,29.66,WNW,290,10.0,13.0,98,0.00,,,0.06,weatherlink.com 1.10,2013-03-11 16:36:00,
2013-03-11 12:06:00,32.7,32.0,29.66,WNW,297,9.0,17.0,97,0.01,,,0.07,weatherlink.com 1.10,2013-03-11 17:06:00,
2013-03-11 12:21:00,32.3,32.0,29.66,West,260,6.0,15.0,97,0.01,,,0.07,weatherlink.com 1.10,2013-03-11 17:21:00,
2013-03-11 12:36:00,32.3,32.0,29.67,WNW,296,9.0,17.0,97,0.01,,,0.07,weatherlink.com 1.10,2013-03-11 17:36:00,
2013-03-11 12:51:00,32.5,32.0,29.67,WNW,298,7.0,18.0,97,0.00,,,0.07,weatherlink.com 1.10,2013-03-11 17:51:00,
2013-03-11 13:06:00,32.6,32.0,29.67,West,280,6.0,18.0,97,0.00,,,0.07,weatherlink.com 1.10,2013-03-11 18:06:00,
2013-03-11 13:36:00,32.9,31.0,29.67,West,260,8.0,21.0,94,0.00,,,0.07,weatherlink.com 1.10,2013-03-11 18:36:00,
2013-03-11 13:51:00,33.2,31.0,29.67,WNW,286,16.0,23.0,92,0.00,,,0.07,weatherlink.com 1.10,2013-03-11 18:51:00,
2013-03-11 14:07:00,32.8,31.0,29.67,WNW,288,7.0,23.0,93,0.00,,,0.07,weatherlink.com 1.10,2013-03-11 19:07:00,
2013-03-11 14:21:00,32.9,31.0,29.67,West,259,16.0,24.0,94,0.00,,,0.07,weatherlink.com 1.10,2013-03-11 19:21:00,
2013-03-11 14:37:00,32.5,31.0,29.67,WNW,284,13.0,23.0,94,0.00,,,0.07,weatherlink.com 1.10,2013-03-11 19:37:00,
2013-03-11 14:51:00,32.2,31.0,29.68,West,277,14.0,27.0,94,0.00,,,0.07,weatherlink.com 1.10,2013-03-11 19:51:00,
2013-03-11 15:07:00,32.5,31.0,29.68,NW,307,14.0,26.0,93,0.00,,,0.07,weatherlink.com 1.10,2013-03-11 20:07:00,
2013-03-11 15:22:00,32.0,30.0,29.69,NW,308,23.0,27.0,92,0.00,,,0.07,weatherlink.com 1.10,2013-03-11 20:22:00,
2013-03-11 15:37:00,31.8,30.0,29.70,WNW,288,20.0,25.0,92,0.00,,,0.07,weatherlink.com 1.10,2013-03-11 20:37:00,
2013-03-11 15:52:00,31.9,29.0,29.70,WNW,300,13.0,27.0,90,0.00,,,0.07,weatherlink.com 1.10,2013-03-11 20:52:00,
2013-03-11 16:22:00,32.5,30.0,29.71,WNW,293,20.0,27.0,89,0.00,,,0.07,weatherlink.com 1.10,2013-03-11 21:22:00,
2013-03-11 16:37:00,32.4,29.0,29.72,WNW,292,20.0,27.0,87,0.00,,,0.07,weatherlink.com 1.10,2013-03-11 21:37:00,
2013-03-11 16:52:00,32.4,29.0,29.73,West,260,9.0,25.0,87,0.00,,,0.07,weatherlink.com 1.10,2013-03-11 21:52:00,
2013-03-11 17:07:00,32.1,29.0,29.73,WNW,290,16.0,26.0,87,0.00,,,0.07,weatherlink.com 1.10,2013-03-11 22:07:00,
2013-03-11 17:22:00,32.0,29.0,29.74,WNW,291,15.0,26.0,87,0.00,,,0.07,weatherlink.com 1.10,2013-03-11 22:22:00,
2013-03-11 17:37:00,31.9,29.0,29.75,West,278,14.0,25.0,87,0.00,,,0.07,weatherlink.com 1.10,2013-03-11 22:37:00,
2013-03-11 17:52:00,31.8,28.0,29.76,West,274,21.0,24.0,87,0.00,,,0.07,weatherlink.com 1.10,2013-03-11 22:52:00,
2013-03-11 18:07:00,31.7,28.0,29.77,WNW,300,12.0,27.0,87,0.00,,,0.07,weatherlink.com 1.10,2013-03-11 23:07:00,
2013-03-11 18:22:00,31.4,28.0,29.77,West,279,16.0,25.0,88,0.00,,,0.07,weatherlink.com 1.10,2013-03-11 23:22:00,
2013-03-11 18:37:00,31.3,29.0,29.78,WNW,294,12.0,22.0,89,0.00,,,0.07,weatherlink.com 1.10,2013-03-11 23:37:00,
2013-03-11 18:52:00,31.1,28.0,29.79,NW,307,11.0,31.0,89,0.00,,,0.07,weatherlink.com 1.10,2013-03-11 23:52:00,
2013-03-11 19:07:00,30.9,28.0,29.80,WNW,288,21.0,25.0,89,0.00,,,0.07,weatherlink.com 1.10,2013-03-12 00:07:00,
2013-03-11 19:22:00,30.8,28.0,29.80,West,274,17.0,20.0,89,0.00,,,0.07,weatherlink.com 1.10,2013-03-12 00:22:00,
2013-03-11 19:37:00,30.6,28.0,29.81,WNW,297,11.0,24.0,89,0.00,,,0.07,weatherlink.com 1.10,2013-03-12 00:37:00,
2013-03-11 19:52:00,30.3,28.0,29.82,WNW,295,18.0,25.0,89,0.00,,,0.07,weatherlink.com 1.10,2013-03-12 00:52:00,
2013-03-11 20:07:00,30.3,27.0,29.82,WNW,286,10.0,27.0,88,0.00,,,0.07,weatherlink.com 1.10,2013-03-12 01:07:00,
2013-03-11 20:22:00,30.3,27.0,29.83,West,280,17.0,23.0,88,0.00,,,0.07,weatherlink.com 1.10,2013-03-12 01:22:00,
2013-03-11 20:37:00,30.2,27.0,29.84,WNW,287,20.0,24.0,88,0.00,,,0.07,weatherlink.com 1.10,2013-03-12 01:37:00,
2013-03-11 20:53:00,30.2,27.0,29.84,West,279,14.0,23.0,88,0.00,,,0.07,weatherlink.com 1.10,2013-03-12 01:53:00,
2013-03-11 21:08:00,30.2,27.0,29.85,WNW,288,15.0,22.0,87,0.00,,,0.07,weatherlink.com 1.10,2013-03-12 02:08:00,
2013-03-11 21:23:00,30.2,27.0,29.85,WSW,255,15.0,23.0,87,0.00,,,0.07,weatherlink.com 1.10,2013-03-12 02:23:00,
2013-03-11 21:38:00,29.9,26.0,29.86,West,265,17.0,27.0,86,0.00,,,0.07,weatherlink.com 1.10,2013-03-12 02:38:00,
2013-03-11 21:54:00,29.8,26.0,29.87,West,276,19.0,27.0,86,0.00,,,0.07,weatherlink.com 1.10,2013-03-12 02:54:00,
2013-03-11 22:08:00,29.5,25.0,29.89,West,272,21.0,27.0,84,0.00,,,0.07,weatherlink.com 1.10,2013-03-12 03:08:00,
2013-03-11 22:23:00,29.4,26.0,29.89,West,262,17.0,25.0,85,0.00,,,0.07,weatherlink.com 1.10,2013-03-12 03:23:00,
2013-03-11 22:38:00,29.2,25.0,29.89,West,259,16.0,28.0,83,0.00,,,0.07,weatherlink.com 1.10,2013-03-12 03:38:00,
2013-03-11 22:53:00,29.1,24.0,29.89,West,278,16.0,24.0,82,0.00,,,0.07,weatherlink.com 1.10,2013-03-12 03:53:00,
2013-03-11 23:08:00,29.1,25.0,29.90,WNW,299,14.0,25.0,84,0.00,,,0.07,weatherlink.com 1.10,2013-03-12 04:08:00,
2013-03-11 23:23:00,29.0,24.0,29.90,West,278,16.0,24.0,81,0.00,,,0.07,weatherlink.com 1.10,2013-03-12 04:23:00,
2013-03-11 23:38:00,29.1,25.0,29.91,WSW,251,13.0,19.0,83,0.00,,,0.07,weatherlink.com 1.10,2013-03-12 04:38:00,
2013-03-11 23:53:00,29.0,24.0,29.90,WNW,298,15.0,21.0,82,0.00,,,0.07,weatherlink.com 1.10,2013-03-12 04:53:00,